Regional Weather Roundup
Issued by NWS Northern Indiana

Home | Current Version | Previous Version | Graphics & Text | Print | Product List | Glossary On
Versions: 1 2 3 4 5 6 7 8 9 10 11 12 13 14 15 16 17 18 19 20 21 22 23 24 25 26 27 28 29 30 31 32 33 34 35 36 37 38 39 40 41 42 43 44 45 46 47 48 49 50
000
ASUS43 KIWX 250910
RWRIWX

KIWX WEATHER ROUNDUP
NATIONAL WEATHER SERVICE NORTHERN INDIANA
400 AM EST SUN JAN 25 2015

NOTE: "FAIR" INDICATES FEW OR NO CLOUDS BELOW 12,000 FEET WITH NO
SIGNIFICANT WEATHER AND/OR OBSTRUCTIONS TO VISIBILITY.

* THESE STATIONS ARE NOT UNDER NWS QUALITY CONTROL. THEY ALSO MAY NOT
  REPORT WEATHER SUCH AS PRECIPITATION OR FOG.

INZ001>027-251000-
NORTHERN INDIANA

CITY           SKY/WX    TMP DP  RH WIND       PRES   REMARKS
GARY*          CLOUDY    35  31  84 NE7       29.67F HAZE    WCI  29
VALPARAISO     CLOUDY    32  32 100 CALM      29.67F FOG
MICHIGAN CITY* CLOUDY    32  32 100 CALM      29.69S FOG
LAPORTE*       CLOUDY    35  35 100 CALM      29.68F FOG
KNOX*          CLOUDY    31  27  85 CALM      29.68S
SOUTH BEND     CLOUDY    35  31  85 N6        29.69F FOG     WCI  30
GOSHEN         CLOUDY    35  33  92 CALM      29.68S FOG
MONTICELLO*    CLOUDY    32  31  99 CALM      29.67S FOG
LOGANSPORT*    CLOUDY    32  32 100 E3        29.69S
ROCHESTER*     CLOUDY    34  34 100 CALM      29.68F FOG
WARSAW*        CLOUDY    32  32 100 CALM      29.68F FOG
ANGOLA*        CLOUDY    32  23  69 CALM      29.69S
FORT WAYNE     CLOUDY    34  32  92 S3        29.70S
HUNTINGTON*    MOCLDY    33  29  85 CALM      29.69F
PERU/GRISSOM   CLOUDY    31  30  95 E3        29.68S
MARION*        CLOUDY    32  31  96 S5        29.70S WCI  27

$$
INZ028>050-251000-
CENTRAL INDIANA

CITY           SKY/WX    TMP DP  RH WIND       PRES   REMARKS
LAFAYETTE      MOCLDY    32  31  96 CALM      29.66F
KOKOMO*        CLOUDY    32  30  93 S5        29.68F WCI  27
MUNCIE*        MOCLDY    35  30  82 S7        29.69F WCI  29
INDIANAPOLIS   CLOUDY    33  30  88 S7        29.69F WCI  27

$$
MIZ043>046-050>051-056>058-064>065-071>073-077>080-251000-
SOUTHWEST LOWER MICHIGAN

CITY           SKY/WX    TMP DP  RH WIND       PRES   REMARKS
BATTLE CREEK   CLOUDY    37  32  82 CALM      29.71R
BENTON HARBOR  CLOUDY    34  33  96 CALM      29.69F FOG
COLDWATER*     CLOUDY    34  32  94 CALM      29.70R FOG
HILLSDALE*     CLOUDY    35  34  99 CALM      29.69R FOG
HOLLAND        CLOUDY    35  31  85 NE9       29.72R WCI  28
GRAND RAPIDS   CLOUDY    31  25  78 NE12      29.73R WCI  22
KALAMAZOO      CLOUDY    35  31  85 CALM      29.70R
STURGIS*       CLOUDY    34  32  93 CALM      29.69S FOG
THREE RIVERS*  CLOUDY    33  31  94 CALM      29.70S FOG

$$
OHZ001>008-015>018-024>025-251000-
NORTHWEST OHIO

CITY           SKY/WX    TMP DP  RH WIND       PRES   REMARKS
WAUSEON*       CLOUDY    36  34  93 CALM      29.71R
DEFIANCE       CLOUDY    36  33  89 CALM      29.71S
FINDLAY        CLOUDY    36  31  82 SW5       29.71R
TOLEDO EXPRESS CLOUDY    34  32  92 SW5       29.71R WCI  30
TOLEDO METCALF CLOUDY    35  31  85 SW3       29.72S
LIMA           MOCLDY    37  31  78 S6        29.70F

$$
AND FOR LAKE MICHIGAN COASTAL AND OPEN LAKE BUOY OBSERVATIONS

STATION/POSITION TEMP    WIND        PRES    VSBY  WAVE
                 AIR SEA DIR/SP/G                  HT/PER
                 (F)     (DEG/KT/KT) (MB)    (MI)  (FT/S)
CALUMET HARBOR    33      20/  8/ 10   N/A
MICHIGAN CITY     34      20/  3/  3   N/A
SAINT JOSEPH      35        CALM     1006.4S

$$
&&



USA.gov is the U.S. government's official web portal to all federal, state and local government web resources and services.